DELTA 1 DEB, 21288

Orbit data source: Space-Track

DELTA 1 DEB, 21288 is space debris in SSO originally from a launch on Thu, 12 Jun 1975 UTC launched from the Air Force Western Test Range (AFWTR). Debris objects in space refer to the collection of defunct objects orbiting the Earth. Examples of debris include non-operational satellites, rocket bodies, and fragments generated from explosions, collisions, or faulty payload assembly.

Loading next visibility...
Identifier
21288, 1975-052Z
Orbit
SSO
Country
Flag of USUS
Related business
Manufacturer
Unknown
Mission
Spacecraft
Bus & Motor
Unknown
Mass
Unknown
Launch date (UTC)
1975-06-12 (50 years ago)
Launch vehicle
Unknown
Launch site
Air Force Western Test Range (AFWTR)
Object type
Payload
Rocket body
Debris
Shape & HBR
Unknown shape, 0.3 m
Radar Cross Section
Medium (>0.1 m² and <1 m²)

Expand to show TLE details & history
Last TLE update: 7 hours ago

TLE from 7 hours ago
0 DELTA 1 DEB
1 21288U 75052Z   25295.43710824  .00000073  00000-0  39269-3 0  9994
2 21288  99.6629 254.4014 0355962 344.4119 130.7002 12.75695607604719
Epoch: 2025-10-22T10:29Z
TLE epoch observation values (Epoch: 2025-10-22T10:29:26.151Z)
Latitude
60.48636°
Longitude
-96.65128°
Altitude
1,554.092 km
Speed
7.01 km/s
True Right ascension
06h 07m 16s
True Declination
60° 21' 13"
Sunlit
Object was in daylight at epoch
Visualization orbit readout
Latitude
Unknown
Longitude
Unknown
Altitude
Unknown
Speed
Unknown
Apparent Right ascension
Unknown
Apparent Declination
Unknown
Sunlit
N/A
Visualization observer readout
Local Sidereal Time
12:09:20
Azimuth
Unknown
Elevation
Unknown
Doppler factor
Unknown
Orbital elements
Apogee altitude
1,631.534 km
Perigee altitude
1,080.906 km
Semi-major axis
7,734.357 km
Eccentricity
0.0356
Inclination
99.6629°
RAAN
254.4014°
Arg. of periapsis
344.4119°
True anomaly
133.70397°
Mean anomaly
130.7002°
Eccentric anomaly
132.21082°
Mean motion
3.19085 °/min
Orbital period
112.82 mins
BSTAR
0.00039269
Loading maneuver chart data...
Computing Atmospheric mass density...

Documentation

Showing up to 5 results
|